Location: Gaast
(52.9002°N, 5.8891°E)
Time: 15:01:25
(UTC+00:00)

ACS3 Solar Sail - Pass Details

Date: 24 January 2026
Orbit: 898 x 968 km, 97.2° (Epoch: 17 February)

Event Time Altitude Azimuth Distance (km) Brightness Sun altitude
Rises 03:09:25 0° 9° (N) 3,637 5.1 -38.8°
Reaches altitude 10° 03:12:01 10° 3° (N) 2,676 4.3 -38.5°
Enters shadow 03:12:30 12° 1° (N) 2,510 4.1 -38.4°
